Time,TemperatureF,DewpointF,PressureIn,WindDirection,WindDirectionDegrees,WindSpeedMPH,WindSpeedGustMPH,Humidity,HourlyPrecipIn,Conditions,Clouds,dailyrainin,SoftwareType,DateUTC
2013-02-08 00:00:00,53.6,53.2,29.70,West,270,3.0,8.0,99,0.01,,,0.85,meteohub,2013-02-08 05:00:00,
2013-02-08 00:01:00,53.6,53.2,29.70,NW,315,5.0,8.0,99,0.00,,,0.85,meteohub,2013-02-08 05:01:00,
2013-02-08 00:02:00,53.6,53.2,29.70,North,0,4.0,8.0,99,0.00,,,0.85,meteohub,2013-02-08 05:02:00,
2013-02-08 00:07:00,53.2,52.9,29.71,North,0,8.0,8.0,99,0.00,,,0.00,meteohub,2013-02-08 05:07:00,
2013-02-08 00:13:00,53.2,52.9,29.71,North,0,2.0,8.0,99,0.00,,,0.00,meteohub,2013-02-08 05:13:00,
2013-02-08 00:18:00,53.1,52.7,29.71,North,0,2.0,8.0,99,0.00,,,0.00,meteohub,2013-02-08 05:18:00,
2013-02-08 00:23:00,52.9,52.5,29.71,North,0,6.0,8.0,99,0.00,,,0.00,meteohub,2013-02-08 05:23:00,
2013-02-08 00:28:00,52.5,52.2,29.71,North,0,8.0,8.0,99,0.00,,,0.00,meteohub,2013-02-08 05:28:00,
2013-02-08 00:33:00,52.5,52.2,29.70,SW,225,4.0,8.0,99,0.00,,,0.00,meteohub,2013-02-08 05:33:00,
2013-02-08 00:38:00,52.3,52.0,29.71,North,0,6.0,8.0,99,0.00,,,0.00,meteohub,2013-02-08 05:38:00,
2013-02-08 00:43:00,52.3,52.0,29.72,North,0,4.0,8.0,99,0.00,,,0.00,meteohub,2013-02-08 05:43:00,
2013-02-08 00:48:00,52.2,51.8,29.72,North,0,4.0,6.0,99,0.00,,,0.00,meteohub,2013-02-08 05:48:00,
2013-02-08 00:53:00,52.2,51.8,29.72,North,0,4.0,6.0,99,0.00,,,0.00,meteohub,2013-02-08 05:53:00,
2013-02-08 00:58:00,52.0,51.6,29.72,North,0,3.0,8.0,99,0.00,,,0.00,meteohub,2013-02-08 05:58:00,
2013-02-08 01:03:00,52.0,51.6,29.72,North,0,6.0,8.0,99,0.00,,,0.00,meteohub,2013-02-08 06:03:00,
2013-02-08 01:08:00,51.8,51.4,29.72,NW,315,4.0,8.0,99,0.00,,,0.00,meteohub,2013-02-08 06:08:00,
2013-02-08 01:14:00,51.8,51.4,29.73,NW,315,4.0,6.0,99,0.00,,,0.00,meteohub,2013-02-08 06:14:00,
2013-02-08 01:19:00,51.8,51.4,29.73,NNW,338,6.0,7.0,99,0.00,,,0.00,meteohub,2013-02-08 06:19:00,
2013-02-08 01:24:00,51.6,51.3,29.73,NNW,338,3.0,7.0,99,0.00,,,0.00,meteohub,2013-02-08 06:24:00,
2013-02-08 01:29:00,51.6,51.3,29.73,North,0,4.0,8.0,99,0.00,,,0.00,meteohub,2013-02-08 06:29:00,
2013-02-08 01:34:00,51.4,51.1,29.74,NW,315,8.0,8.0,99,0.00,,,0.00,meteohub,2013-02-08 06:34:00,
2013-02-08 01:39:00,51.3,50.9,29.74,NW,315,4.0,8.0,99,0.00,,,0.00,meteohub,2013-02-08 06:39:00,
2013-02-08 01:44:00,51.3,50.9,29.74,NNW,338,4.0,8.0,99,0.00,,,0.00,meteohub,2013-02-08 06:44:00,
2013-02-08 01:49:00,51.1,50.7,29.75,NW,315,4.0,8.0,99,0.00,,,0.00,meteohub,2013-02-08 06:49:00,
2013-02-08 01:54:00,51.1,50.7,29.75,NW,315,10.0,10.0,99,0.00,,,0.00,meteohub,2013-02-08 06:54:00,
2013-02-08 01:59:00,50.9,50.5,29.75,NW,315,7.0,10.0,99,0.00,,,0.00,meteohub,2013-02-08 06:59:00,
2013-02-08 02:04:00,50.9,50.5,29.75,North,0,4.0,10.0,99,0.00,,,0.00,meteohub,2013-02-08 07:04:00,
2013-02-08 02:09:00,50.7,50.4,29.75,NW,315,6.0,10.0,99,0.00,,,0.00,meteohub,2013-02-08 07:09:00,
2013-02-08 02:14:00,50.7,50.4,29.75,North,0,6.0,9.0,99,0.00,,,0.00,meteohub,2013-02-08 07:14:00,
2013-02-08 02:20:00,50.5,50.2,29.75,NNW,338,4.0,8.0,99,0.00,,,0.00,meteohub,2013-02-08 07:20:00,
2013-02-08 02:25:00,50.4,50.0,29.75,North,0,5.0,9.0,99,0.00,,,0.00,meteohub,2013-02-08 07:25:00,
2013-02-08 02:30:00,50.4,50.0,29.75,North,0,4.0,9.0,99,0.00,,,0.00,meteohub,2013-02-08 07:30:00,
2013-02-08 02:35:00,50.2,49.8,29.75,ENE,68,4.0,7.0,99,0.00,,,0.00,meteohub,2013-02-08 07:35:00,
2013-02-08 02:40:00,50.0,49.6,29.75,NW,315,3.0,7.0,99,0.00,,,0.00,meteohub,2013-02-08 07:40:00,
2013-02-08 02:45:00,50.0,49.6,29.75,East,90,3.0,5.0,99,0.00,,,0.00,meteohub,2013-02-08 07:45:00,
2013-02-08 02:50:00,50.0,49.6,29.75,NW,315,3.0,4.0,99,0.00,,,0.00,meteohub,2013-02-08 07:50:00,
2013-02-08 02:55:00,50.0,49.6,29.75,North,0,6.0,6.0,99,0.00,,,0.00,meteohub,2013-02-08 07:55:00,
2013-02-08 03:00:00,49.8,49.5,29.75,NW,315,4.0,8.0,99,0.00,,,0.00,meteohub,2013-02-08 08:00:00,
2013-02-08 03:05:00,49.8,49.5,29.76,North,0,4.0,8.0,99,0.00,,,0.00,meteohub,2013-02-08 08:05:00,
2013-02-08 03:10:00,49.8,49.5,29.76,NW,315,2.0,8.0,99,0.00,,,0.00,meteohub,2013-02-08 08:10:00,
2013-02-08 03:15:00,49.8,49.5,29.76,North,0,3.0,6.0,99,0.00,,,0.00,meteohub,2013-02-08 08:15:00,
2013-02-08 03:20:00,49.8,49.5,29.76,North,0,6.0,6.0,99,0.00,,,0.00,meteohub,2013-02-08 08:20:00,
2013-02-08 03:26:00,49.6,49.5,29.75,North,0,2.0,6.0,99,0.00,,,0.00,meteohub,2013-02-08 08:26:00,
2013-02-08 03:31:00,49.6,49.5,29.76,NW,315,4.0,6.0,99,0.00,,,0.00,meteohub,2013-02-08 08:31:00,
2013-02-08 03:36:00,49.6,49.5,29.75,WNW,293,7.0,7.0,99,0.00,,,0.00,meteohub,2013-02-08 08:36:00,
2013-02-08 03:41:00,49.6,49.5,29.76,North,0,4.0,7.0,99,0.00,,,0.00,meteohub,2013-02-08 08:41:00,
2013-02-08 03:46:00,49.6,49.5,29.76,North,0,5.0,7.0,99,0.00,,,0.00,meteohub,2013-02-08 08:46:00,
2013-02-08 03:51:00,49.5,49.3,29.76,North,0,8.0,8.0,99,0.00,,,0.00,meteohub,2013-02-08 08:51:00,
2013-02-08 03:56:00,49.5,49.3,29.76,North,0,4.0,8.0,99,0.00,,,0.00,meteohub,2013-02-08 08:56:00,
2013-02-08 04:01:00,49.5,49.3,29.77,North,0,5.0,8.0,99,0.00,,,0.00,meteohub,2013-02-08 09:01:00,
2013-02-08 04:06:00,49.3,49.1,29.77,North,0,4.0,13.0,99,0.00,,,0.00,meteohub,2013-02-08 09:06:00,
2013-02-08 04:11:00,49.3,49.1,29.77,NW,315,7.0,13.0,99,0.00,,,0.00,meteohub,2013-02-08 09:11:00,
2013-02-08 04:16:00,49.3,49.1,29.77,North,0,5.0,13.0,99,0.00,,,0.00,meteohub,2013-02-08 09:16:00,
2013-02-08 04:21:00,49.3,49.1,29.78,NW,315,4.0,7.0,99,0.00,,,0.00,meteohub,2013-02-08 09:21:00,
2013-02-08 04:26:00,49.1,48.9,29.78,North,0,8.0,8.0,99,0.00,,,0.00,meteohub,2013-02-08 09:26:00,
2013-02-08 04:31:00,49.1,48.9,29.78,SW,225,7.0,9.0,99,0.00,,,0.00,meteohub,2013-02-08 09:31:00,
2013-02-08 04:36:00,49.1,48.9,29.78,North,0,5.0,9.0,99,0.00,,,0.00,meteohub,2013-02-08 09:36:00,
2013-02-08 04:41:00,49.1,48.9,29.78,North,0,9.0,9.0,99,0.00,,,0.00,meteohub,2013-02-08 09:41:00,
2013-02-08 04:47:00,48.9,48.7,29.78,ENE,68,7.0,11.0,99,0.00,,,0.00,meteohub,2013-02-08 09:47:00,
2013-02-08 04:52:00,48.9,48.7,29.79,North,0,4.0,11.0,99,0.00,,,0.00,meteohub,2013-02-08 09:52:00,
2013-02-08 04:57:00,48.9,48.7,29.79,North,0,4.0,11.0,99,0.00,,,0.00,meteohub,2013-02-08 09:57:00,
2013-02-08 05:02:00,48.7,48.6,29.79,North,0,7.0,7.0,99,0.00,,,0.00,meteohub,2013-02-08 10:02:00,
2013-02-08 05:07:00,48.7,48.6,29.79,North,0,4.0,8.0,99,0.00,,,0.00,meteohub,2013-02-08 10:07:00,
2013-02-08 05:12:00,48.7,48.6,29.80,North,0,5.0,8.0,99,0.00,,,0.00,meteohub,2013-02-08 10:12:00,
2013-02-08 05:17:00,48.7,48.6,29.80,North,0,4.0,7.0,99,0.00,,,0.00,meteohub,2013-02-08 10:17:00,
2013-02-08 05:22:00,48.7,48.6,29.80,NW,315,5.0,7.0,99,0.00,,,0.00,meteohub,2013-02-08 10:22:00,
2013-02-08 05:27:00,48.6,48.4,29.80,North,0,4.0,10.0,99,0.00,,,0.00,meteohub,2013-02-08 10:27:00,
2013-02-08 05:32:00,48.6,48.4,29.80,North,0,3.0,10.0,99,0.00,,,0.00,meteohub,2013-02-08 10:32:00,
2013-02-08 05:37:00,48.6,48.4,29.81,North,0,2.0,10.0,99,0.00,,,0.00,meteohub,2013-02-08 10:37:00,
2013-02-08 05:42:00,48.6,48.4,29.80,North,0,4.0,8.0,99,0.00,,,0.00,meteohub,2013-02-08 10:42:00,
2013-02-08 05:47:00,48.6,48.4,29.81,North,0,7.0,8.0,99,0.00,,,0.00,meteohub,2013-02-08 10:47:00,
2013-02-08 05:52:00,48.6,48.4,29.81,North,0,3.0,7.0,99,0.00,,,0.00,meteohub,2013-02-08 10:52:00,
2013-02-08 05:57:00,48.6,48.4,29.81,North,0,5.0,7.0,99,0.00,,,0.00,meteohub,2013-02-08 10:57:00,
2013-02-08 06:02:00,48.6,48.4,29.81,NW,315,3.0,7.0,99,0.00,,,0.00,meteohub,2013-02-08 11:02:00,
2013-02-08 06:08:00,48.6,48.4,29.81,North,0,5.0,5.0,99,0.00,,,0.00,meteohub,2013-02-08 11:08:00,
2013-02-08 06:13:00,48.6,48.4,29.81,NW,315,4.0,5.0,99,0.00,,,0.00,meteohub,2013-02-08 11:13:00,
2013-02-08 06:18:00,48.6,48.4,29.82,NW,315,2.0,5.0,99,0.00,,,0.00,meteohub,2013-02-08 11:18:00,
2013-02-08 06:23:00,48.6,48.4,29.82,North,0,4.0,5.0,99,0.00,,,0.00,meteohub,2013-02-08 11:23:00,
2013-02-08 06:28:00,48.6,48.4,29.83,North,0,4.0,4.0,99,0.00,,,0.00,meteohub,2013-02-08 11:28:00,
2013-02-08 06:33:00,48.6,48.4,29.82,NE,45,4.0,4.0,99,0.00,,,0.00,meteohub,2013-02-08 11:33:00,
2013-02-08 06:38:00,48.6,48.4,29.83,NNW,338,4.0,5.0,99,0.00,,,0.00,meteohub,2013-02-08 11:38:00,
2013-02-08 06:43:00,48.6,48.4,29.83,North,0,4.0,5.0,99,0.00,,,0.00,meteohub,2013-02-08 11:43:00,
2013-02-08 06:48:00,48.6,48.4,29.83,NE,45,3.0,5.0,99,0.00,,,0.00,meteohub,2013-02-08 11:48:00,
2013-02-08 06:53:00,48.6,48.4,29.84,North,0,5.0,5.0,99,0.00,,,0.00,meteohub,2013-02-08 11:53:00,
2013-02-08 06:58:00,48.6,48.4,29.84,NW,315,3.0,10.0,99,0.00,,,0.00,meteohub,2013-02-08 11:58:00,
2013-02-08 07:03:00,48.6,48.4,29.85,NW,315,4.0,10.0,99,0.00,,,0.00,meteohub,2013-02-08 12:03:00,
2013-02-08 07:08:00,48.6,48.4,29.85,North,0,3.0,6.0,99,0.00,,,0.00,meteohub,2013-02-08 12:08:00,
2013-02-08 07:13:00,48.6,48.4,29.85,North,0,3.0,6.0,99,0.00,,,0.00,meteohub,2013-02-08 12:13:00,
2013-02-08 07:19:00,48.6,48.4,29.85,NW,315,2.0,6.0,99,0.00,,,0.00,meteohub,2013-02-08 12:19:00,
2013-02-08 07:24:00,48.6,48.4,29.85,West,270,5.0,6.0,99,0.00,,,0.00,meteohub,2013-02-08 12:24:00,
2013-02-08 07:29:00,48.6,48.4,29.86,North,0,2.0,5.0,99,0.00,,,0.00,meteohub,2013-02-08 12:29:00,
2013-02-08 07:34:00,48.6,48.4,29.86,North,0,4.0,5.0,99,0.00,,,0.00,meteohub,2013-02-08 12:34:00,
2013-02-08 07:39:00,48.6,48.4,29.86,NW,315,2.0,5.0,99,0.00,,,0.00,meteohub,2013-02-08 12:39:00,
2013-02-08 07:44:00,48.7,48.6,29.86,NW,315,4.0,5.0,99,0.00,,,0.00,meteohub,2013-02-08 12:44:00,
2013-02-08 07:49:00,48.7,48.6,29.87,NW,315,3.0,5.0,99,0.00,,,0.00,meteohub,2013-02-08 12:49:00,
2013-02-08 07:54:00,48.7,48.6,29.87,NW,315,2.0,5.0,99,0.00,,,0.00,meteohub,2013-02-08 12:54:00,
2013-02-08 07:59:00,48.9,48.7,29.88,NW,315,2.0,5.0,99,0.00,,,0.00,meteohub,2013-02-08 12:59:00,
2013-02-08 08:04:00,48.9,48.7,29.87,NW,315,2.0,5.0,99,0.00,,,0.00,meteohub,2013-02-08 13:04:00,
2013-02-08 08:09:00,49.1,48.9,29.87,North,0,3.0,4.0,99,0.00,,,0.00,meteohub,2013-02-08 13:09:00,
2013-02-08 08:14:00,49.1,48.9,29.88,West,270,2.0,6.0,99,0.00,,,0.00,meteohub,2013-02-08 13:14:00,
2013-02-08 08:20:00,49.5,49.3,29.88,NW,315,2.0,6.0,99,0.00,,,0.00,meteohub,2013-02-08 13:20:00,
2013-02-08 08:25:00,49.5,49.3,29.88,North,0,5.0,6.0,99,0.00,,,0.00,meteohub,2013-02-08 13:25:00,
2013-02-08 08:30:00,49.8,49.5,29.88,NW,315,1.0,5.0,99,0.00,,,0.00,meteohub,2013-02-08 13:30:00,
2013-02-08 08:35:00,50.0,49.6,29.89,NW,315,2.0,5.0,99,0.00,,,0.00,meteohub,2013-02-08 13:35:00,
2013-02-08 08:40:00,50.2,49.8,29.89,NNW,338,2.0,5.0,99,0.00,,,0.00,meteohub,2013-02-08 13:40:00,
2013-02-08 08:45:00,50.4,50.0,29.88,NW,315,3.0,6.0,99,0.00,,,0.00,meteohub,2013-02-08 13:45:00,
2013-02-08 08:50:00,50.7,50.4,29.88,WNW,293,4.0,6.0,99,0.00,,,0.00,meteohub,2013-02-08 13:50:00,
2013-02-08 08:55:00,50.9,50.5,29.89,NW,315,2.0,6.0,99,0.00,,,0.00,meteohub,2013-02-08 13:55:00,
2013-02-08 09:00:00,51.3,50.9,29.89,West,270,3.0,6.0,99,0.00,,,0.00,meteohub,2013-02-08 14:00:00,
2013-02-08 09:05:00,51.6,51.3,29.89,WNW,293,4.0,5.0,99,0.00,,,0.00,meteohub,2013-02-08 14:05:00,
2013-02-08 09:10:00,52.3,52.0,29.89,NW,315,2.0,6.0,99,0.00,,,0.00,meteohub,2013-02-08 14:10:00,
2013-02-08 09:15:00,52.9,52.5,29.89,WNW,293,3.0,6.0,99,0.00,,,0.00,meteohub,2013-02-08 14:15:00,
2013-02-08 09:21:00,53.8,53.4,29.89,North,0,4.0,6.0,99,0.00,,,0.00,meteohub,2013-02-08 14:21:00,
2013-02-08 09:26:00,54.5,54.1,29.89,West,270,2.0,5.0,99,0.00,,,0.00,meteohub,2013-02-08 14:26:00,
2013-02-08 09:31:00,54.7,54.3,29.90,West,270,7.0,7.0,99,0.00,,,0.00,meteohub,2013-02-08 14:31:00,
2013-02-08 09:36:00,54.7,54.3,29.90,NW,315,2.0,7.0,99,0.00,,,0.00,meteohub,2013-02-08 14:36:00,
2013-02-08 09:41:00,54.5,54.1,29.90,West,270,4.0,7.0,99,0.00,,,0.00,meteohub,2013-02-08 14:41:00,
2013-02-08 09:46:00,55.2,54.9,29.90,North,0,4.0,7.0,99,0.00,,,0.00,meteohub,2013-02-08 14:46:00,
2013-02-08 09:51:00,55.9,55.6,29.90,West,270,3.0,8.0,99,0.00,,,0.00,meteohub,2013-02-08 14:51:00,
2013-02-08 09:56:00,55.8,55.4,29.91,NE,45,4.0,8.0,99,0.00,,,0.00,meteohub,2013-02-08 14:56:00,
2013-02-08 10:01:00,55.4,55.0,29.91,NW,315,4.0,8.0,99,0.00,,,0.00,meteohub,2013-02-08 15:01:00,
2013-02-08 10:06:00,55.8,55.4,29.90,West,270,4.0,8.0,99,0.00,,,0.00,meteohub,2013-02-08 15:06:00,
2013-02-08 10:12:00,55.8,55.4,29.90,NNW,338,3.0,8.0,99,0.00,,,0.00,meteohub,2013-02-08 15:12:00,
2013-02-08 10:17:00,55.9,55.6,29.90,West,270,2.0,8.0,99,0.00,,,0.00,meteohub,2013-02-08 15:17:00,
2013-02-08 10:22:00,56.5,56.1,29.90,NW,315,4.0,8.0,99,0.00,,,0.00,meteohub,2013-02-08 15:22:00,
2013-02-08 10:27:00,56.8,56.5,29.90,NW,315,4.0,8.0,99,0.00,,,0.00,meteohub,2013-02-08 15:27:00,
2013-02-08 10:32:00,56.7,56.3,29.90,NW,315,5.0,8.0,99,0.00,,,0.00,meteohub,2013-02-08 15:32:00,
2013-02-08 10:37:00,57.0,56.7,29.90,SW,225,7.0,8.0,99,0.00,,,0.00,meteohub,2013-02-08 15:37:00,
2013-02-08 10:42:00,57.0,56.7,29.91,NW,315,2.0,8.0,99,0.00,,,0.00,meteohub,2013-02-08 15:42:00,
2013-02-08 10:47:00,57.7,57.4,29.90,North,0,3.0,8.0,99,0.00,,,0.00,meteohub,2013-02-08 15:47:00,
2013-02-08 10:52:00,58.5,57.4,29.91,North,0,6.0,8.0,96,0.00,,,0.00,meteohub,2013-02-08 15:52:00,
2013-02-08 10:57:00,58.1,57.6,29.90,West,270,6.0,8.0,98,0.00,,,0.00,meteohub,2013-02-08 15:57:00,
2013-02-08 11:02:00,59.5,58.5,29.90,NW,315,4.0,8.0,96,0.00,,,0.00,meteohub,2013-02-08 16:02:00,
2013-02-08 11:07:00,60.4,57.7,29.90,North,0,4.0,8.0,91,0.00,,,0.00,meteohub,2013-02-08 16:07:00,
2013-02-08 11:12:00,61.2,58.3,29.90,NW,315,3.0,8.0,90,0.00,,,0.00,meteohub,2013-02-08 16:12:00,
2013-02-08 11:17:00,60.6,57.9,29.90,WNW,293,2.0,8.0,91,0.00,,,0.00,meteohub,2013-02-08 16:17:00,
2013-02-08 11:22:00,61.2,57.9,29.90,NW,315,2.0,8.0,89,0.00,,,0.00,meteohub,2013-02-08 16:22:00,
2013-02-08 11:27:00,61.7,59.0,29.89,West,270,2.0,7.0,91,0.00,,,0.00,meteohub,2013-02-08 16:27:00,
2013-02-08 11:32:00,61.7,58.5,29.88,North,0,6.0,6.0,89,0.00,,,0.00,meteohub,2013-02-08 16:32:00,
2013-02-08 11:37:00,61.5,58.8,29.88,NW,315,2.0,8.0,91,0.00,,,0.00,meteohub,2013-02-08 16:37:00,
2013-02-08 11:43:00,61.9,58.3,29.88,NW,315,4.0,8.0,88,0.00,,,0.00,meteohub,2013-02-08 16:43:00,
2013-02-08 11:48:00,62.2,59.0,29.88,NW,315,12.0,12.0,89,0.00,,,0.00,meteohub,2013-02-08 16:48:00,
2013-02-08 11:53:00,62.2,58.3,29.88,NW,315,6.0,12.0,87,0.00,,,0.00,meteohub,2013-02-08 16:53:00,
2013-02-08 11:58:00,62.4,58.8,29.88,SE,135,2.0,12.0,88,0.00,,,0.00,meteohub,2013-02-08 16:58:00,
2013-02-08 12:03:00,63.0,58.6,29.88,NW,315,4.0,12.0,86,0.00,,,0.00,meteohub,2013-02-08 17:03:00,
2013-02-08 12:08:00,62.6,58.3,29.89,NW,315,8.0,8.0,86,0.00,,,0.00,meteohub,2013-02-08 17:08:00,
2013-02-08 12:14:00,63.0,59.4,29.88,NW,315,8.0,8.0,88,0.00,,,0.00,meteohub,2013-02-08 17:14:00,
2013-02-08 12:19:00,63.5,59.5,29.88,NW,315,6.0,9.0,87,0.00,,,0.00,meteohub,2013-02-08 17:19:00,
2013-02-08 12:24:00,63.9,59.9,29.88,West,270,11.0,11.0,87,0.00,,,0.00,meteohub,2013-02-08 17:24:00,
2013-02-08 12:29:00,64.2,59.5,29.88,West,270,10.0,10.0,85,0.00,,,0.00,meteohub,2013-02-08 17:29:00,
2013-02-08 12:35:00,64.6,59.4,29.88,NE,45,3.0,11.0,83,0.00,,,0.00,meteohub,2013-02-08 17:35:00,
2013-02-08 12:40:00,65.7,59.7,29.87,NW,315,3.0,11.0,81,0.00,,,0.00,meteohub,2013-02-08 17:40:00,
2013-02-08 12:45:00,66.6,60.3,29.87,North,0,4.0,11.0,80,0.00,,,0.00,meteohub,2013-02-08 17:45:00,
2013-02-08 12:50:00,68.5,61.0,29.87,North,0,5.0,11.0,77,0.00,,,0.00,meteohub,2013-02-08 17:50:00,
2013-02-08 12:55:00,68.9,61.0,29.87,NW,315,8.0,8.0,76,0.00,,,0.00,meteohub,2013-02-08 17:55:00,
2013-02-08 13:00:00,69.1,61.5,29.87,West,270,5.0,8.0,77,0.00,,,0.00,meteohub,2013-02-08 18:00:00,
2013-02-08 13:05:00,69.1,61.2,29.87,NW,315,10.0,10.0,76,0.00,,,0.00,meteohub,2013-02-08 18:05:00,
2013-02-08 13:10:00,69.3,61.3,29.87,North,0,3.0,10.0,76,0.00,,,0.00,meteohub,2013-02-08 18:10:00,
2013-02-08 13:15:00,70.3,60.8,29.86,NW,315,8.0,10.0,72,0.00,,,0.00,meteohub,2013-02-08 18:15:00,
2013-02-08 13:21:00,70.0,61.7,29.86,West,270,8.0,10.0,75,0.00,,,0.00,meteohub,2013-02-08 18:21:00,
2013-02-08 13:26:00,69.3,60.3,29.86,West,270,3.0,8.0,73,0.00,,,0.00,meteohub,2013-02-08 18:26:00,
2013-02-08 13:31:00,70.2,61.2,29.87,North,0,4.0,8.0,73,0.00,,,0.00,meteohub,2013-02-08 18:31:00,
2013-02-08 13:37:00,70.7,61.7,29.86,NW,315,3.0,8.0,73,0.00,,,0.00,meteohub,2013-02-08 18:37:00,
2013-02-08 13:42:00,70.7,61.7,29.87,North,0,4.0,8.0,73,0.00,,,0.00,meteohub,2013-02-08 18:42:00,
2013-02-08 13:47:00,70.7,61.7,29.86,NW,315,7.0,8.0,73,0.00,,,0.00,meteohub,2013-02-08 18:47:00,
2013-02-08 13:52:00,70.3,61.3,29.86,West,270,9.0,11.0,73,0.00,,,0.00,meteohub,2013-02-08 18:52:00,
2013-02-08 13:57:00,70.2,62.2,29.86,West,270,9.0,11.0,76,0.00,,,0.00,meteohub,2013-02-08 18:57:00,
2013-02-08 14:02:00,70.0,61.3,29.86,West,270,7.0,11.0,74,0.00,,,0.00,meteohub,2013-02-08 19:02:00,
2013-02-08 14:07:00,70.0,61.7,29.86,NW,315,5.0,11.0,75,0.00,,,0.00,meteohub,2013-02-08 19:07:00,
2013-02-08 14:12:00,70.2,61.5,29.86,NW,315,9.0,11.0,74,0.00,,,0.00,meteohub,2013-02-08 19:12:00,
2013-02-08 14:18:00,69.8,61.2,29.87,NW,315,6.0,10.0,74,0.00,,,0.00,meteohub,2013-02-08 19:18:00,
2013-02-08 14:23:00,70.2,61.2,29.87,West,270,8.0,10.0,73,0.00,,,0.00,meteohub,2013-02-08 19:23:00,
2013-02-08 14:28:00,70.2,60.6,29.87,NW,315,5.0,10.0,72,0.00,,,0.00,meteohub,2013-02-08 19:28:00,
2013-02-08 14:33:00,69.8,60.4,29.87,NW,315,10.0,10.0,72,0.00,,,0.00,meteohub,2013-02-08 19:33:00,
2013-02-08 14:38:00,69.4,60.4,29.87,NE,45,8.0,11.0,73,0.00,,,0.00,meteohub,2013-02-08 19:38:00,
2013-02-08 14:43:00,69.8,60.8,29.86,NW,315,6.0,11.0,73,0.00,,,0.00,meteohub,2013-02-08 19:43:00,
2013-02-08 14:48:00,69.8,60.8,29.87,West,270,8.0,11.0,73,0.00,,,0.00,meteohub,2013-02-08 19:48:00,
2013-02-08 14:53:00,68.2,61.0,29.86,NW,315,6.0,11.0,78,0.00,,,0.00,meteohub,2013-02-08 19:53:00,
2013-02-08 14:58:00,67.1,60.4,29.86,NW,315,8.0,11.0,79,0.00,,,0.00,meteohub,2013-02-08 19:58:00,
2013-02-08 15:03:00,66.7,60.1,29.86,North,0,5.0,12.0,79,0.00,,,0.00,meteohub,2013-02-08 20:03:00,
2013-02-08 15:08:00,66.9,60.3,29.86,NW,315,4.0,12.0,79,0.00,,,0.00,meteohub,2013-02-08 20:08:00,
2013-02-08 15:14:00,66.9,60.6,29.86,NE,45,8.0,12.0,80,0.00,,,0.00,meteohub,2013-02-08 20:14:00,
2013-02-08 15:19:00,66.7,60.8,29.86,NNW,338,8.0,8.0,81,0.00,,,0.00,meteohub,2013-02-08 20:19:00,
2013-02-08 15:24:00,67.5,60.8,29.86,North,0,9.0,11.0,79,0.00,,,0.00,meteohub,2013-02-08 20:24:00,
2013-02-08 15:29:00,68.4,60.4,29.87,NW,315,5.0,11.0,76,0.00,,,0.00,meteohub,2013-02-08 20:29:00,
2013-02-08 15:34:00,68.9,60.6,29.86,North,0,6.0,11.0,75,0.00,,,0.00,meteohub,2013-02-08 20:34:00,
2013-02-08 15:39:00,69.3,60.6,29.86,North,0,9.0,11.0,74,0.00,,,0.00,meteohub,2013-02-08 20:39:00,
2013-02-08 15:44:00,68.5,61.0,29.86,NW,315,6.0,11.0,77,0.00,,,0.00,meteohub,2013-02-08 20:44:00,
2013-02-08 15:49:00,69.1,61.2,29.86,NW,315,8.0,13.0,76,0.00,,,0.00,meteohub,2013-02-08 20:49:00,
2013-02-08 15:54:00,68.7,60.1,29.86,North,0,5.0,13.0,74,0.00,,,0.00,meteohub,2013-02-08 20:54:00,
2013-02-08 16:00:00,69.1,60.8,29.86,North,0,8.0,13.0,75,0.00,,,0.00,meteohub,2013-02-08 21:00:00,
2013-02-08 16:05:00,69.4,60.8,29.86,NW,315,5.0,10.0,74,0.00,,,0.00,meteohub,2013-02-08 21:05:00,
2013-02-08 16:10:00,70.0,61.3,29.86,West,270,5.0,9.0,74,0.00,,,0.00,meteohub,2013-02-08 21:10:00,
2013-02-08 16:15:00,69.6,60.6,29.86,NW,315,10.0,10.0,73,0.00,,,0.00,meteohub,2013-02-08 21:15:00,
2013-02-08 16:20:00,69.4,61.2,29.86,West,270,6.0,10.0,75,0.00,,,0.00,meteohub,2013-02-08 21:20:00,
2013-02-08 16:25:00,68.9,60.6,29.86,West,270,5.0,11.0,75,0.00,,,0.00,meteohub,2013-02-08 21:25:00,
2013-02-08 16:30:00,68.9,61.0,29.86,West,270,5.0,11.0,76,0.00,,,0.00,meteohub,2013-02-08 21:30:00,
2013-02-08 16:35:00,68.9,61.0,29.86,West,270,8.0,11.0,76,0.00,,,0.00,meteohub,2013-02-08 21:35:00,
2013-02-08 16:40:00,69.1,61.5,29.86,West,270,6.0,11.0,77,0.00,,,0.00,meteohub,2013-02-08 21:40:00,
2013-02-08 16:46:00,68.7,60.8,29.86,West,270,8.0,10.0,76,0.00,,,0.00,meteohub,2013-02-08 21:46:00,
2013-02-08 16:51:00,68.9,60.6,29.87,NW,315,8.0,9.0,75,0.00,,,0.00,meteohub,2013-02-08 21:51:00,
2013-02-08 16:56:00,68.7,60.4,29.87,North,0,6.0,9.0,75,0.00,,,0.00,meteohub,2013-02-08 21:56:00,
2013-02-08 17:01:00,68.5,60.3,29.87,NNW,338,7.0,9.0,75,0.00,,,0.00,meteohub,2013-02-08 22:01:00,
2013-02-08 17:06:00,68.0,60.4,29.87,West,270,5.0,9.0,77,0.00,,,0.00,meteohub,2013-02-08 22:06:00,
2013-02-08 17:11:00,67.5,60.4,29.87,NW,315,9.0,9.0,78,0.00,,,0.00,meteohub,2013-02-08 22:11:00,
2013-02-08 17:16:00,67.5,60.4,29.87,NW,315,5.0,9.0,78,0.00,,,0.00,meteohub,2013-02-08 22:16:00,
2013-02-08 17:21:00,67.6,60.3,29.87,North,0,7.0,9.0,77,0.00,,,0.00,meteohub,2013-02-08 22:21:00,
2013-02-08 17:26:00,67.1,60.4,29.87,North,0,4.0,9.0,79,0.00,,,0.00,meteohub,2013-02-08 22:26:00,
2013-02-08 17:31:00,67.1,60.4,29.88,NW,315,3.0,8.0,79,0.00,,,0.00,meteohub,2013-02-08 22:31:00,
2013-02-08 17:36:00,67.3,60.3,29.87,NW,315,4.0,8.0,78,0.00,,,0.00,meteohub,2013-02-08 22:36:00,
2013-02-08 17:42:00,66.4,60.1,29.87,NW,315,4.0,6.0,80,0.00,,,0.00,meteohub,2013-02-08 22:42:00,
2013-02-08 17:47:00,64.9,59.4,29.88,NW,315,4.0,5.0,82,0.00,,,0.00,meteohub,2013-02-08 22:47:00,
2013-02-08 17:52:00,63.0,58.5,29.88,NW,315,2.0,5.0,85,0.00,,,0.00,meteohub,2013-02-08 22:52:00,
2013-02-08 17:57:00,61.9,58.3,29.88,NW,315,2.0,5.0,88,0.00,,,0.00,meteohub,2013-02-08 22:57:00,
2013-02-08 18:02:00,61.0,58.3,29.88,NW,315,2.0,4.0,91,0.00,,,0.00,meteohub,2013-02-08 23:02:00,
2013-02-08 18:07:00,60.3,58.3,29.88,NW,315,2.0,3.0,93,0.00,,,0.00,meteohub,2013-02-08 23:07:00,
2013-02-08 18:12:00,59.7,57.9,29.88,West,270,1.0,3.0,94,0.00,,,0.00,meteohub,2013-02-08 23:12:00,
2013-02-08 18:17:00,59.0,57.9,29.89,West,270,1.0,3.0,96,0.00,,,0.00,meteohub,2013-02-08 23:17:00,
2013-02-08 18:22:00,58.1,57.6,29.89,West,270,0.0,2.0,98,0.00,,,0.00,meteohub,2013-02-08 23:22:00,
2013-02-08 18:27:00,57.4,57.0,29.89,West,270,0.0,2.0,99,0.00,,,0.00,meteohub,2013-02-08 23:27:00,
2013-02-08 18:32:00,56.5,56.1,29.89,NW,315,1.0,1.0,99,0.00,,,0.00,meteohub,2013-02-08 23:32:00,
2013-02-08 18:37:00,55.9,55.6,29.89,NW,315,1.0,1.0,99,0.00,,,0.00,meteohub,2013-02-08 23:37:00,
2013-02-08 18:42:00,55.2,54.9,29.90,NW,315,0.0,1.0,99,0.00,,,0.00,meteohub,2013-02-08 23:42:00,
2013-02-08 18:47:00,54.9,54.5,29.89,WNW,293,1.0,1.0,99,0.00,,,0.00,meteohub,2013-02-08 23:47:00,
2013-02-08 18:52:00,54.5,54.1,29.90,NW,315,1.0,1.0,99,0.00,,,0.00,meteohub,2013-02-08 23:52:00,
2013-02-08 18:57:00,54.0,53.6,29.90,NW,315,1.0,2.0,99,0.00,,,0.00,meteohub,2013-02-08 23:57:00,
2013-02-08 19:02:00,53.8,53.4,29.90,NW,315,2.0,2.0,99,0.00,,,0.00,meteohub,2013-02-09 00:02:00,
2013-02-08 19:07:00,53.4,53.1,29.90,North,0,1.0,2.0,99,0.00,,,0.00,meteohub,2013-02-09 00:07:00,
2013-02-08 19:12:00,53.2,52.9,29.90,NW,315,1.0,2.0,99,0.00,,,0.00,meteohub,2013-02-09 00:12:00,
2013-02-08 19:18:00,53.1,52.7,29.91,West,270,2.0,2.0,99,0.00,,,0.00,meteohub,2013-02-09 00:18:00,
2013-02-08 19:23:00,52.9,52.5,29.91,NW,315,2.0,2.0,99,0.00,,,0.00,meteohub,2013-02-09 00:23:00,
2013-02-08 19:28:00,52.9,52.5,29.91,NW,315,2.0,2.0,99,0.00,,,0.00,meteohub,2013-02-09 00:28:00,
2013-02-08 19:33:00,52.7,52.3,29.91,NW,315,1.0,2.0,99,0.00,,,0.00,meteohub,2013-02-09 00:33:00,
2013-02-08 19:38:00,52.5,52.2,29.92,NW,315,1.0,2.0,99,0.00,,,0.00,meteohub,2013-02-09 00:38:00,
2013-02-08 19:43:00,52.5,52.2,29.92,North,0,1.0,2.0,99,0.00,,,0.00,meteohub,2013-02-09 00:43:00,
2013-02-08 19:48:00,52.5,52.2,29.92,West,270,2.0,2.0,99,0.00,,,0.00,meteohub,2013-02-09 00:48:00,
2013-02-08 19:53:00,52.9,52.5,29.92,West,270,2.0,2.0,99,0.00,,,0.00,meteohub,2013-02-09 00:53:00,
2013-02-08 19:58:00,53.4,53.1,29.93,West,270,2.0,2.0,99,0.00,,,0.00,meteohub,2013-02-09 00:58:00,
2013-02-08 20:03:00,54.3,54.0,29.93,West,270,2.0,2.0,99,0.00,,,0.00,meteohub,2013-02-09 01:03:00,
2013-02-08 20:09:00,55.0,54.7,29.93,West,270,2.0,3.0,99,0.00,,,0.00,meteohub,2013-02-09 01:09:00,
2013-02-08 20:14:00,55.4,55.0,29.93,West,270,1.0,3.0,99,0.00,,,0.00,meteohub,2013-02-09 01:14:00,
2013-02-08 20:19:00,55.6,55.2,29.94,SW,225,2.0,3.0,99,0.00,,,0.00,meteohub,2013-02-09 01:19:00,
2013-02-08 20:24:00,55.8,55.4,29.94,NW,315,2.0,3.0,99,0.00,,,0.00,meteohub,2013-02-09 01:24:00,
2013-02-08 20:29:00,56.1,55.8,29.94,NW,315,2.0,2.0,99,0.00,,,0.00,meteohub,2013-02-09 01:29:00,
2013-02-08 20:34:00,56.3,55.9,29.94,West,270,2.0,2.0,99,0.00,,,0.00,meteohub,2013-02-09 01:34:00,
2013-02-08 20:39:00,56.7,56.3,29.94,West,270,2.0,3.0,99,0.00,,,0.00,meteohub,2013-02-09 01:39:00,
2013-02-08 20:44:00,57.0,56.7,29.94,NW,315,2.0,3.0,99,0.00,,,0.00,meteohub,2013-02-09 01:44:00,
2013-02-08 20:49:00,57.2,56.8,29.95,NW,315,2.0,3.0,99,0.00,,,0.00,meteohub,2013-02-09 01:49:00,
2013-02-08 20:54:00,57.4,57.0,29.95,West,270,2.0,3.0,99,0.00,,,0.00,meteohub,2013-02-09 01:54:00,
2013-02-08 21:00:00,57.7,57.4,29.95,NW,315,2.0,2.0,99,0.00,,,0.00,meteohub,2013-02-09 02:00:00,
2013-02-08 21:05:00,58.1,57.7,29.96,NW,315,4.0,4.0,99,0.00,,,0.00,meteohub,2013-02-09 02:05:00,
2013-02-08 21:10:00,58.1,57.7,29.95,NW,315,3.0,4.0,99,0.00,,,0.00,meteohub,2013-02-09 02:10:00,
2013-02-08 21:15:00,58.5,58.1,29.96,North,0,4.0,5.0,99,0.00,,,0.00,meteohub,2013-02-09 02:15:00,
2013-02-08 21:20:00,58.6,58.3,29.95,West,270,4.0,5.0,99,0.00,,,0.00,meteohub,2013-02-09 02:20:00,
2013-02-08 21:25:00,58.6,58.3,29.96,West,270,2.0,5.0,99,0.00,,,0.00,meteohub,2013-02-09 02:25:00,
2013-02-08 21:30:00,58.6,58.3,29.96,WSW,248,1.0,4.0,99,0.00,,,0.00,meteohub,2013-02-09 02:30:00,
2013-02-08 21:35:00,58.3,57.9,29.96,WNW,293,2.0,4.0,99,0.00,,,0.00,meteohub,2013-02-09 02:35:00,
2013-02-08 21:40:00,58.1,57.7,29.96,West,270,2.0,2.0,99,0.00,,,0.00,meteohub,2013-02-09 02:40:00,
2013-02-08 21:45:00,57.7,57.4,29.96,NW,315,2.0,2.0,99,0.00,,,0.00,meteohub,2013-02-09 02:45:00,
2013-02-08 21:50:00,57.2,56.8,29.96,SW,225,2.0,2.0,99,0.00,,,0.00,meteohub,2013-02-09 02:50:00,
2013-02-08 21:55:00,56.7,56.3,29.96,SW,225,2.0,2.0,99,0.00,,,0.00,meteohub,2013-02-09 02:55:00,
2013-02-08 22:01:00,56.1,55.8,29.96,NW,315,2.0,2.0,99,0.00,,,0.00,meteohub,2013-02-09 03:01:00,
2013-02-08 22:06:00,55.8,55.4,29.97,West,270,2.0,3.0,99,0.00,,,0.00,meteohub,2013-02-09 03:06:00,
2013-02-08 22:11:00,55.8,55.4,29.96,North,0,2.0,4.0,99,0.00,,,0.00,meteohub,2013-02-09 03:11:00,
2013-02-08 22:16:00,55.9,55.6,29.96,North,0,3.0,4.0,99,0.00,,,0.00,meteohub,2013-02-09 03:16:00,
2013-02-08 22:21:00,55.9,55.6,29.97,North,0,3.0,4.0,99,0.00,,,0.00,meteohub,2013-02-09 03:21:00,
2013-02-08 22:26:00,55.9,55.6,29.97,NW,315,2.0,3.0,99,0.00,,,0.00,meteohub,2013-02-09 03:26:00,
2013-02-08 22:31:00,55.8,55.4,29.97,NW,315,3.0,3.0,99,0.00,,,0.00,meteohub,2013-02-09 03:31:00,
2013-02-08 22:36:00,55.8,55.4,29.97,North,0,2.0,4.0,99,0.00,,,0.00,meteohub,2013-02-09 03:36:00,
2013-02-08 22:41:00,55.6,55.2,29.97,North,0,3.0,4.0,99,0.00,,,0.00,meteohub,2013-02-09 03:41:00,
2013-02-08 22:46:00,55.6,55.2,29.97,NW,315,2.0,5.0,99,0.00,,,0.00,meteohub,2013-02-09 03:46:00,
2013-02-08 22:51:00,55.6,55.2,29.97,West,270,2.0,5.0,99,0.00,,,0.00,meteohub,2013-02-09 03:51:00,
2013-02-08 22:57:00,55.6,55.2,29.97,West,270,2.0,5.0,99,0.00,,,0.00,meteohub,2013-02-09 03:57:00,
2013-02-08 23:02:00,55.4,55.0,29.98,North,0,3.0,4.0,99,0.00,,,0.00,meteohub,2013-02-09 04:02:00,
2013-02-08 23:07:00,55.2,54.9,29.98,West,270,1.0,3.0,99,0.00,,,0.00,meteohub,2013-02-09 04:07:00,
2013-02-08 23:12:00,55.0,54.7,29.98,North,0,5.0,5.0,99,0.00,,,0.00,meteohub,2013-02-09 04:12:00,
2013-02-08 23:17:00,55.0,54.7,29.99,NNE,23,4.0,5.0,99,0.00,,,0.00,meteohub,2013-02-09 04:17:00,
2013-02-08 23:22:00,55.0,54.7,29.98,NW,315,5.0,7.0,99,0.00,,,0.00,meteohub,2013-02-09 04:22:00,
2013-02-08 23:27:00,54.9,54.5,29.99,North,0,4.0,7.0,99,0.00,,,0.00,meteohub,2013-02-09 04:27:00,
2013-02-08 23:32:00,54.7,54.3,29.99,NW,315,2.0,7.0,99,0.00,,,0.00,meteohub,2013-02-09 04:32:00,
2013-02-08 23:37:00,54.5,54.1,29.99,North,0,4.0,5.0,99,0.00,,,0.00,meteohub,2013-02-09 04:37:00,
2013-02-08 23:42:00,54.3,54.0,29.99,North,0,2.0,8.0,99,0.00,,,0.00,meteohub,2013-02-09 04:42:00,
2013-02-08 23:47:00,54.0,53.6,29.99,NW,315,3.0,8.0,99,0.00,,,0.00,meteohub,2013-02-09 04:47:00,
2013-02-08 23:52:00,53.6,53.2,29.99,North,0,2.0,8.0,99,0.00,,,0.00,meteohub,2013-02-09 04:52:00,
2013-02-08 23:57:00,53.1,52.7,29.99,NNW,338,2.0,4.0,99,0.00,,,0.00,meteohub,2013-02-09 04:57:00,